Simultaneous Nadir Overpasses (SNOs) Predictions

Prediction of SNOs between GOES-15 and METOP-A Satellite Orbit:

Table of predicted SNOs for the next 14.0 days since TLE Epoch: 2/8/2019
Index Date Time (GOES-15) GOES-15 Lat,Lon METOP-A Lat,Lon Distance(km) Time Diff (sec)
1 02/09/2019 05:30:58 -0.01,-127.98 0.57,-125.22 314.59 80
2 02/10/2019 17:49:46 0.01,-128.00 0.41,-129.79 203.06 80
3 02/11/2019 17:31:43 0.01,-128.03 -0.69,-124.79 369.41 80
4 02/13/2019 05:50:40 -0.01,-128.10 -0.30,-129.39 147.33 80
5 02/14/2019 05:27:17 -0.01,-128.12 0.79,-124.39 424.02 80
6 02/15/2019 17:46:06 0.01,-128.12 0.18,-128.96 95.63 80
7 02/16/2019 17:28:03 0.02,-128.14 -0.91,-123.96 475.99 80
8 02/18/2019 05:46:59 -0.03,-128.20 -0.08,-128.57 41.55 80
9 02/20/2019 17:45:04 0.02,-128.20 0.01,-128.13 8.23 80




NCC Satellite Simultaneous Nadir Overpasses (SNOs) Prediction Service
